Simultaneous Nadir Overpasses (SNOs) Predictions

Prediction of SNOs between GOES-14 and NPP Satellite Orbit:

Table of predicted SNOs for the next 14.0 days since TLE Epoch: 2/8/2025
Index Date Time (GOES-14) GOES-14 Lat,Lon NPP Lat,Lon Distance(km) Time Diff (sec)
1 02/08/2025 20:55:51 -0.41,-107.80 -1.34,-112.09 487.98 80
2 02/09/2025 20:34:25 -0.40,-107.79 -0.36,-107.55 26.91 80
3 02/12/2025 08:40:08 0.42,-107.79 0.52,-108.28 55.88 80
4 02/13/2025 08:18:44 0.41,-107.78 -0.52,-103.75 459.35 80
5 02/14/2025 20:43:18 -0.43,-107.72 -0.73,-109.04 149.83 80
6 02/15/2025 20:21:54 -0.42,-107.71 0.32,-104.51 365.60 80
7 02/17/2025 08:46:21 0.43,-107.73 0.87,-109.77 231.86 80
8 02/18/2025 08:24:55 0.43,-107.72 -0.12,-105.23 283.56 80
9 02/19/2025 20:49:30 -0.44,-107.66 -1.11,-110.52 325.84 80
10 02/20/2025 20:28:05 -0.44,-107.65 -0.05,-105.99 189.45 80
